Flag Weather past 2 weeks in Wellington, New Zealand

Now
48 °F

Passing clouds.


Feels Like: 44 °F
Forecast: 45 / 64 °F
Wind: 9 mph from North

Location: Wellington Airport

Current Time: Nov 29, 2014 at 7:16:27 AM

Latest Report: Nov 29, 2014 at 6:30 AM


Visibility: N/A

Pressure: 29.71 "Hg

Humidity: 87%

Dew point: 45 °F

Location of WellingtonLocation

Historic Weather in Wellington — Graph

°F

Wellington temperature yesterday

Maximum temperature yesterday: 59 °F (at 12:00 AM)
Minimum temperature yesterday: 50 °F (at 9:30 PM)
Average temperature yesterday: 56 °F

Past Weeks' High & Low Weather Summary

 TemperatureHumidityPressure
High75 °F (Nov 26, 11:00 AM)100% (Nov 17, 8:00 PM)30.09 "Hg (Nov 17, 8:00 PM)
Low45 °F (Nov 20, 6:30 AM)24% (Nov 26, 11:00 AM)29.24 "Hg (Nov 15, 5:00 PM)
Average59 °F69%29.69 "Hg
* Reported Nov 14 6:00 AM — Nov 29 6:00 AM, Wellington, Weather by CustomWeather, © 2014

Note: Actual official high and low records may vary slightly from our data, if they occured in-between our weather recording intervals... More about our weather records

Advertising

Wellington weather history for previous 24 hours

 ConditionsComfort  
Time TempWeatherWind HumidityBarometerVisibility
6:00 AM
Nov 29
46 °FScattered clouds.7 mph93%29.68 "HgN/A
5:30 AM46 °FPassing clouds.8 mph93%29.71 "HgN/A
5:00 AM46 °FPassing clouds.7 mph93%29.71 "HgN/A
4:30 AM48 °FPassing clouds.8 mph94%29.71 "HgN/A
4:00 AM48 °FCool.6 mph94%29.71 "HgN/A
3:30 AM48 °FCool.7 mph94%29.71 "HgN/A
3:00 AM48 °FPassing clouds.5 mph87%29.71 "HgN/A
2:30 AM50 °FSprinkles. Overcast.6 mph88%29.71 "HgN/A
2:00 AM50 °FSprinkles. Partly cloudy.3 mph94%29.71 "HgN/A
1:30 AM48 °FPassing clouds.5 mph94%29.71 "HgN/A
1:00 AM50 °FPassing clouds.3 mph88%29.71 "HgN/A
12:30 AM50 °FPartly cloudy.3 mph88%29.71 "HgN/A
12:00 AM50 °FSprinkles. Mostly cloudy.1 mph88%29.71 "HgN/A
11:30 PM
Nov 28
50 °FMostly cloudy.6 mph88%29.71 "HgN/A
11:00 PM50 °FDrizzle. Mostly cloudy.3 mph82%29.68 "HgN/A
10:30 PM50 °FSprinkles. Overcast.8 mph82%29.68 "HgN/A
10:00 PM50 °FSprinkles. Passing clouds.3 mph82%29.68 "HgN/A
9:30 PM50 °FSprinkles. Passing clouds.13 mph82%29.65 "HgN/A
9:00 PM52 °FOvercast.18 mph77%29.65 "HgN/A
8:30 PM52 °FSprinkles. Partly sunny.20 mph82%29.62 "HgN/A
8:00 PM52 °FSprinkles. More clouds than sun.17 mph82%29.62 "HgN/A
7:30 PM52 °FSprinkles. Partly sunny.18 mph82%29.62 "HgN/A
7:00 PM52 °FRain showers. Mostly cloudy.20 mph82%29.62 "Hg3 mi
6:30 PM57 °FPartly sunny.13 mph63%29.59 "HgN/A
6:00 PM57 °FBroken clouds.14 mph67%29.59 "HgN/A
5:30 PM57 °FPassing clouds.18 mph67%29.56 "HgN/A
4:30 PM59 °FPassing clouds.23 mph59%29.59 "HgN/A
4:00 PM57 °FScattered clouds.22 mph63%29.59 "HgN/A
3:30 PM59 °FPassing clouds.20 mph59%29.59 "HgN/A
3:00 PM59 °FPassing clouds.22 mph63%29.59 "HgN/A
2:30 PM57 °FMostly cloudy.21 mph63%29.62 "HgN/A
2:00 PM57 °FBroken clouds.20 mph63%29.62 "HgN/A
1:30 PM57 °FScattered clouds.20 mph63%29.62 "HgN/A
1:00 PM59 °FScattered clouds.20 mph59%29.62 "HgN/A
12:30 PM57 °FRefreshingly cool.21 mph59%29.65 "HgN/A
12:00 PM59 °FPassing clouds.17 mph55%29.62 "HgN/A
11:30 AM59 °FPartly sunny.15 mph55%29.62 "HgN/A
11:00 AM59 °FPartly sunny.14 mph55%29.65 "HgN/A
10:30 AM59 °FRefreshingly cool.15 mph55%29.65 "HgN/A
10:00 AM59 °FRefreshingly cool.17 mph51%29.65 "HgN/A
9:30 AM59 °FRefreshingly cool.20 mph51%29.62 "HgN/A
9:00 AM59 °FRefreshingly cool.20 mph51%29.62 "HgN/A
8:30 AM59 °FRefreshingly cool.14 mph51%29.62 "HgN/A
8:00 AM59 °FRefreshingly cool.16 mph51%29.62 "HgN/A
7:30 AM57 °FRefreshingly cool.14 mph59%29.62 "HgN/A
7:00 AM57 °FRefreshingly cool.13 mph59%29.62 "HgN/A
Weather by CustomWeather, © 2014

See weather overviewHow to use our weather pages